DW7649 Weather Reports


Display with metric or nautical units.
time (UTC)temp
F
wind
direction
speed
MPH
gust
MPH
rain 1hr
in
rain 24hr
in
rain mn
in
humidity
%
barometer
mb
20190626024526 70 0 0.0 0.0 0.00 0.33 0.33 78 1015.5
20190626023626 70 0 0.0 0.0 0.00 0.33 0.33 78 1015.4
20190626022726 70 0 0.0 0.0 0.00 0.33 0.33 77 1015.4
20190626021826 71 275 0.0 1.0 0.00 0.33 0.33 77 1015.2
20190626020926 71 275 1.0 1.0 0.00 0.33 0.33 78 1015.1
20190626020026 71 275 0.0 1.0 0.00 0.33 0.33 77 1015.0
20190626015126 72 275 0.0 1.0 0.00 0.33 0.33 78 1014.9
20190626014226 72 275 1.0 1.0 0.00 0.33 0.33 77 1014.8
20190626013326 73 275 1.0 1.0 0.00 0.33 0.33 77 1014.6
20190626011526 74 275 0.0 1.0 0.00 0.33 0.33 75 1014.4
20190626010626 74 0 0.0 0.0 0.00 0.33 0.33 73 1014.3
20190626005726 74 0 0.0 0.0 0.00 0.33 0.33 73 1014.2
20190626004826 75 0 0.0 0.0 0.00 0.33 0.33 73 1014.1
20190626003926 75 0 0.0 0.0 0.00 0.33 0.33 73 1013.9
20190626003026 75 0 0.0 0.0 0.00 0.33 0.33 71 1013.8
20190626002126 76 0 0.0 0.0 0.00 0.33 0.33 70 1013.7
20190626001226 76 0 0.0 0.0 0.00 0.33 0.33 71 1013.7
20190626000326 76 0 0.0 0.0 0.00 0.33 0.33 70 1013.6
20190625235426 77 0 0.0 0.0 0.00 0.33 0.33 71 1013.4
20190625234526 77 0 0.0 0.0 0.00 0.33 0.33 69 1013.3
20190625233626 77 0 0.0 0.0 0.00 0.33 0.33 69 1013.3
20190625232726 77 0 0.0 0.0 0.00 0.33 0.33 70 1013.2
20190625231826 78 275 0.0 1.0 0.00 0.33 0.33 69 1013.0
20190625230926 78 275 0.0 1.0 0.00 0.33 0.33 69 1012.9
20190625230026 78 275 0.0 1.0 0.00 0.33 0.33 69 1012.8
20190625225126 79 275 0.0 1.0 0.00 0.33 0.33 68 1012.6
20190625224226 79 275 0.0 1.0 0.00 0.33 0.33 66 1012.7
20190625222429 79 275 0.0 1.0 0.00 0.33 0.33 65 1012.5
20190625221526 80 275 0.0 1.0 0.00 0.33 0.33 63 1012.5
20190625220626 80 4 1.0 2.0 0.00 0.33 0.33 68 1012.4
20190625215726 81 172 0.0 2.0 0.00 0.33 0.33 68 1012.3
20190625214826 81 216 0.0 1.0 0.00 0.33 0.33 68 1012.4
20190625213926 82 235 0.0 2.0 0.00 0.33 0.33 64 1012.4
20190625213026 82 244 0.0 2.0 0.00 0.33 0.33 61 1012.4
20190625212126 83 246 0.0 3.0 0.00 0.35 0.33 60 1012.4
20190625211226 84 242 1.0 5.0 0.00 0.36 0.33 54 1012.5
20190625210326 84 274 1.0 4.0 0.00 0.38 0.33 49 1012.4
20190625205426 84 314 1.0 3.0 0.00 0.41 0.33 61 1012.4
20190625204526 84 292 1.0 5.0 0.00 0.42 0.33 62 1012.3
20190625203626 85 247 1.0 6.0 0.00 0.43 0.33 69 1012.3
20190625202726 85 197 1.0 3.0 0.00 0.43 0.33 68 1012.3
20190625201826 83 147 1.0 3.0 0.00 0.45 0.33 68 1012.4
20190625200926 83 143 0.0 2.0 0.00 0.47 0.33 78 1012.5
20190625200026 83 0 0.0 0.0 0.00 0.49 0.33 75 1012.5
20190625195126 84 146 0.0 1.0 0.00 0.50 0.33 73 1012.6
20190625194226 86 146 1.0 2.0 0.00 0.52 0.33 74 1012.7
20190625192426 86 218 1.0 4.0 0.00 0.52 0.33 71 1012.6
20190625191526 85 168 0.0 2.0 0.00 0.52 0.33 71 1012.6
20190625190626 84 228 0.0 3.0 0.00 0.52 0.33 73 1012.6
20190625185726 83 212 0.0 1.0 0.00 0.52 0.33 75 1012.5
20190625184826 83 196 0.0 1.0 0.00 0.52 0.33 78 1012.6
20190625183926 84 196 0.0 1.0 0.00 0.52 0.33 75 1012.6
20190625183026 84 205 0.0 2.0 0.00 0.52 0.33 74 1012.6
20190625182126 85 236 0.0 2.0 0.00 0.52 0.33 70 1012.6
20190625181226 86 280 1.0 3.0 0.00 0.52 0.33 68 1012.6
20190625180326 86 249 1.0 3.0 0.00 0.52 0.33 70 1012.5
20190625175426 85 270 1.0 5.0 0.00 0.52 0.33 69 1012.5
20190625174526 84 284 1.0 2.0 0.00 0.52 0.33 74 1012.6
20190625173626 83 232 0.0 2.0 0.00 0.52 0.33 72 1012.6
20190625172726 83 194 1.0 2.0 0.00 0.52 0.33 70 1012.6
20190625171826 83 176 0.0 2.0 0.00 0.52 0.33 80 1012.6
20190625170926 81 211 0.0 2.0 0.00 0.52 0.33 76 1012.7
20190625170026 81 212 0.0 2.0 0.00 0.52 0.33 79 1012.8
20190625165126 81 213 0.0 2.0 0.00 0.52 0.33 75 1012.8
20190625164226 82 217 1.0 3.0 0.00 0.52 0.33 75 1012.8
20190625163326 82 279 1.0 2.0 0.00 0.52 0.33 72 1012.8
20190625162426 82 345 1.0 3.0 0.00 0.52 0.33 70 1012.7
20190625161526 83 89 0.0 2.0 0.00 0.52 0.33 74 1012.6
20190625160626 82 268 1.0 4.0 0.00 0.52 0.33 75 1012.6
20190625155726 82 179 1.0 2.0 0.00 0.52 0.33 79 1012.6
20190625154826 81 203 1.0 3.0 0.00 0.52 0.33 77 1012.6
20190625153926 81 131 1.0 3.0 0.00 0.52 0.33 77 1012.6
20190625153026 81 74 1.0 3.0 0.00 0.52 0.33 77 1012.6
20190625152126 81 271 0.0 2.0 0.00 0.52 0.33 80 1012.6
20190625151226 80 216 1.0 2.0 0.00 0.52 0.33 82 1012.6
20190625150326 78 177 0.0 2.0 0.00 0.52 0.33 86 1012.5
20190625145426 78 233 1.0 2.0 0.00 0.52 0.33 88 1012.4
20190625144525 77 233 0.0 2.0 0.00 0.52 0.33 88 1012.4
20190625143626 76 80 1.0 3.0 0.00 0.52 0.33 88 1012.2
20190625142725 76 282 0.0 2.0 0.00 0.52 0.33 88 1012.1
20190625141826 76 206 0.0 2.0 0.00 0.52 0.33 90 1012.1
20190625140926 75 161 0.0 2.0 0.00 0.52 0.33 92 1012.1
20190625140026 75 160 0.0 2.0 0.00 0.52 0.33 92 1011.9
20190625135126 75 131 0.0 2.0 0.00 0.52 0.33 93 1011.8
20190625134226 74 71 0.0 2.0 0.00 0.52 0.33 94 1011.9
20190625133326 74 217 0.0 1.0 0.00 0.52 0.33 94 1012.0
20190625132426 74 217 0.0 2.0 0.00 0.52 0.33 94 1011.9
20190625131525 73 217 0.0 1.0 0.00 0.52 0.33 94 1011.9
20190625130625 73 217 0.0 1.0 0.00 0.52 0.33 94 1011.8
20190625125725 72 217 0.0 1.0 0.00 0.52 0.33 94 1011.7
20190625124825 72 0 0.0 0.0 0.00 0.52 0.33 94 1011.6
20190625123926 72 217 0.0 1.0 0.00 0.52 0.33 94 1011.5
20190625123026 71 217 0.0 1.0 0.00 0.52 0.33 94 1011.4
20190625122125 71 217 0.0 1.0 0.00 0.52 0.33 94 1011.3
20190625121225 70 0 0.0 0.0 0.00 0.52 0.33 94 1011.2
20190625120326 70 0 0.0 0.0 0.00 0.52 0.33 93 1011.1
20190625115425 70 0 0.0 0.0 0.00 0.52 0.33 93 1010.9
20190625114525 70 0 0.0 0.0 0.00 0.52 0.33 93 1010.7
20190625113626 70 0 0.0 0.0 0.00 0.52 0.33 93 1010.7
20190625112725 70 0 0.0 0.0 0.00 0.52 0.33 93 1010.5
20190625111826 70 0 0.0 0.0 0.00 0.52 0.33 93 1010.3
20190625110925 71 217 0.0 1.0 0.00 0.52 0.33 94 1010.3
20190625110025 71 217 0.0 1.0 0.00 0.52 0.33 94 1010.2
20190625105125 70 217 0.0 2.0 0.00 0.52 0.33 94 1010.1
20190625104225 70 219 0.0 1.0 0.00 0.52 0.33 94 1009.9
20190625103325 70 0 0.0 0.0 0.00 0.52 0.33 93 1009.7
20190625102426 70 0 0.0 0.0 0.00 0.52 0.33 93 1009.7
20190625101525 70 219 0.0 1.0 0.00 0.52 0.33 93 1009.6
20190625100626 70 219 0.0 1.0 0.00 0.52 0.33 93 1009.5
20190625095725 70 219 0.0 1.0 0.00 0.52 0.33 93 1009.2
20190625094825 71 0 0.0 0.0 0.00 0.52 0.33 93 1009.2
20190625093925 71 0 0.0 0.0 0.00 0.52 0.33 93 1009.1
20190625093025 71 219 0.0 1.0 0.00 0.52 0.33 93 1008.9
20190625092125 71 219 0.0 1.0 0.00 0.52 0.33 93 1008.8
20190625091225 71 0 0.0 0.0 0.00 0.52 0.33 93 1008.7
20190625090325 71 0 0.0 0.0 0.00 0.52 0.33 93 1008.7
20190625085426 72 219 0.0 1.0 0.00 0.52 0.33 93 1008.5
20190625084525 72 219 0.0 1.0 0.00 0.52 0.33 93 1008.5
20190625083625 72 0 0.0 0.0 0.00 0.52 0.33 93 1008.4
20190625082725 72 219 0.0 1.0 0.00 0.52 0.33 93 1008.4
20190625081825 72 219 0.0 1.0 0.00 0.52 0.33 93 1008.5
20190625080925 72 219 0.0 1.0 0.00 0.52 0.33 93 1008.5
20190625080025 72 219 0.0 1.0 0.00 0.52 0.33 93 1008.4
20190625075125 72 0 0.0 0.0 0.00 0.52 0.33 93 1008.3
20190625074225 72 0 0.0 0.0 0.00 0.52 0.33 93 1008.4
20190625073325 72 0 0.0 0.0 0.00 0.52 0.33 93 1008.3
20190625072425 72 219 0.0 2.0 0.00 0.52 0.33 93 1008.3
20190625071525 72 216 0.0 3.0 0.01 0.52 0.33 93 1008.4
20190625070625 72 198 0.0 2.0 0.02 0.52 0.33 93 1008.6
20190625065725 72 199 0.0 2.0 0.05 0.52 0.33 93 1008.7
20190625064825 72 221 1.0 3.0 0.07 0.52 0.33 93 1008.6
20190625063925 72 240 1.0 3.0 0.10 0.52 0.33 93 1008.5
20190625063025 72 225 1.0 5.0 0.13 0.52 0.33 93 1008.5
20190625062125 72 116 0.0 1.0 0.14 0.51 0.32 93 1008.7
20190625061226 72 118 0.0 3.0 0.16 0.51 0.32 93 1008.7
20190625060325 72 222 1.0 2.0 0.16 0.49 0.30 94 1008.9
20190625055425 72 140 0.0 4.0 0.17 0.46 0.27 94 1009.1
20190625054525 72 132 0.0 1.0 0.17 0.44 0.25 94 1009.1
20190625053625 72 132 0.0 2.0 0.19 0.41 0.22 94 1009.1
20190625052725 72 132 0.0 2.0 0.19 0.38 0.19 93 1009.0
20190625051825 72 132 0.0 1.0 0.18 0.37 0.18 93 1008.8
20190625050925 72 132 0.0 1.0 0.16 0.35 0.16 93 1009.4
20190625050025 72 132 0.0 1.0 0.13 0.32 0.13 93 1009.6
20190625045126 72 132 0.0 1.0 0.09 0.28 0.09 93 1009.1
20190625044225 72 133 0.0 1.0 0.07 0.26 0.07 93 1009.2
20190625043325 72 0 0.0 0.0 0.01 0.20 0.01 93 1009.1
20190625042425 72 0 0.0 0.0 0.00 0.19 0.00 93 1009.0
20190625041525 72 0 0.0 0.0 0.00 0.19 0.00 93 1008.9
20190625040626 72 133 0.0 1.0 0.00 0.19 0.00 93 1008.9
20190625035725 72 133 0.0 1.0 0.00 0.19 0.19 93 1009.1
20190625034826 72 133 0.0 1.0 0.00 0.19 0.19 93 1009.1
20190625033926 72 133 0.0 1.0 0.00 0.19 0.19 93 1009.1
20190625033025 72 133 0.0 2.0 0.00 0.19 0.19 93 1009.1
20190625032125 72 133 0.0 1.0 0.00 0.19 0.19 93 1008.9
20190625031225 72 133 0.0 1.0 0.00 0.19 0.19 93 1009.1
20190625030325 72 133 0.0 1.0 0.00 0.19 0.19 93 1009.2
20190625025425 72 132 0.0 1.0 0.00 0.19 0.19 93 1009.2